Theta_e
315 315 315 315 315 315 315 315 315 315 315 315 315 315 315 315 315 315 315 316 316 316 316 316 317 319 312 303 302 311 348 352 342 329 321 314 308 306 304 308 311 308 311 319 327 327 332
315 314 314 315 315 315 315 315 314 314 314 314 314 314 315 315 316 316 316 316 316 316 315 316 317 318 306 294 307 310 311 328 328 323 318 314 311 310 307 309 307 310 310 320 321 322 329
314 314 314 314 314 314 314 314 314 314 314 313 314 314 315 315 316 316 315 315 315 316 316 317 317 316 311 300 308 311 321 317 322 316 311 315 315 309 309 307 310 307 307 315 315 320 326
314 314 314 315 314 314 314 314 314 313 313 313 314 314 314 314 315 315 314 314 315 316 317 318 319 315 300 312 312 310 310 305 315 318 315 316 313 309 308 311 307 303 305 304 312 320 328
314 314 313 314 313 314 313 313 313 312 313 314 314 314 314 314 313 313 313 313 316 317 321 321 314 309 298 317 312 310 307 306 307 310 314 321 312 307 307 301 296 298 297 303 309 316 323
313 313 313 314 313 313 313 312 312 312 312 313 313 313 313 313 313 312 312 314 315 316 320 321 318 302 306 307 314 310 307 309 309 310 311 310 305 300 297 296 292 294 296 302 307 313 314
313 313 313 313 313 312 312 312 312 312 313 313 313 313 312 312 312 311 308 303 299 297 302 303 302 305 306 311 315 310 309 309 309 309 303 305 299 296 300 300 300 301 298 305 311 315 313
313 313 313 313 312 312 312 312 313 313 313 313 313 312 312 311 311 310 301 297 300 299 292 302 302 303 309 310 306 309 311 304 304 300 304 300 297 303 304 302 301 300 298 298 306 317 314
313 312 312 312 312 312 312 312 312 313 312 312 312 311 311 311 310 301 297 297 302 296 290 297 301 301 303 308 304 305 308 305 302 299 301 299 301 307 305 301 300 296 296 298 302 314 314
312 312 312 312 311 311 312 312 312 312 312 312 311 311 310 309 297 298 297 301 300 301 287 293 296 300 303 306 301 311 311 306 302 300 302 300 307 306 302 301 300 292 302 304 303 306 303
312 312 312 311 311 312 312 312 312 312 312 311 311 310 309 309 297 295 297 301 303 296 282 301 298 305 302 304 306 306 313 304 300 301 301 299 302 303 301 303 302 299 305 303 304 302 302
311 312 311 311 311 312 312 312 312 311 311 310 310 309 309 302 296 300 302 300 295 288 283 298 301 297 298 301 303 308 307 307 306 302 301 302 304 305 304 306 305 305 302 300 299 299 294
311 311 311 311 311 311 312 311 311 311 311 310 309 308 306 305 294 297 300 295 285 282 296 295 293 294 294 296 300 303 303 300 297 292 295 298 302 302 305 301 302 300 294 288 288 289 292
311 311 311 311 311 311 311 311 311 311 311 310 308 307 302 303 300 301 294 288 279 290 290 296 294 293 292 297 299 300 300 298 298 297 292 292 292 301 303 300 297 296 295 289 286 287 293
311 310 311 311 312 311 311 311 311 311 310 309 306 295 295 299 301 298 289 280 283 288 294 292 292 290 289 293 295 297 297 300 301 298 293 291 293 302 304 302 302 295 292 297 292 290 291
310 310 310 311 311 311 311 311 311 311 310 309 297 291 292 301 298 293 286 283 285 293 295 293 287 289 286 289 291 292 294 298 301 302 300 296 291 299 304 303 301 299 299 293 289 286 286
310 310 310 311 311 311 311 311 311 310 309 307 291 286 292 298 296 289 281 283 290 294 296 292 289 288 289 289 290 289 292 298 302 302 301 296 294 295 301 297 297 294 292 291 293 291 288
310 310 311 311 311 311 311 311 310 309 308 300 287 280 290 299 286 285 283 289 294 293 295 293 293 290 289 290 288 289 291 297 304 302 300 298 294 292 295 300 303 299 295 294 290 287 290
310 310 310 311 311 311 311 310 310 309 308 301 288 284 295 295 283 285 288 290 293 292 292 291 290 293 292 288 286 291 295 302 303 302 299 299 291 288 290 295 296 296 294 292 291 290 290
309 309 310 311 311 311 311 311 310 309 309 296 289 282 287 291 292 290 287 287 289 295 294 294 291 294 291 289 289 289 294 301 301 303 315 307 291 297 292 292 297 294 296 295 294 288 289
309 309 309 310 311 311 311 311 311 310 309 296 286 283 287 281 285 287 289 290 288 288 293 292 289 291 289 284 289 288 293 294 299 302 299 296 296 295 299 299 299 298 298 295 293 293 293
309 309 309 310 311 311 312 311 310 309 307 295 287 290 288 285 285 287 289 287 288 290 289 289 289 292 290 286 287 286 289 288 290 294 293 294 292 294 296 300 299 299 301 297 296 295 293
308 308 309 310 311 311 311 311 310 308 305 293 296 297 292 286 282 285 288 288 288 290 292 293 292 289 289 292 293 293 292 292 292 289 291 291 291 290 294 296 296 293 300 299 298 297 297
309 309 309 310 311 311 311 311 310 308 305 297 299 297 290 281 282 285 288 290 288 290 289 293 292 288 293 297 295 291 288 289 290 292 292 291 289 291 291 292 287 298 303 303 302 302 299
309 309 310 310 310 311 311 311 311 309 308 298 295 295 292 282 284 286 289 288 289 291 289 291 293 293 294 291 286 287 289 289 292 294 292 293 291 291 290 292 294 300 301 301 300 303 311
310 309 310 310 310 310 311 311 311 310 308 298 294 297 296 288 283 289 288 288 285 286 288 291 296 295 294 286 285 283 286 287 289 291 291 292 293 292 290 289 289 297 307 310 310 304 309
310 310 310 310 310 310 310 311 311 311 308 299 295 297 295 290 289 288 285 285 289 289 285 287 290 291 294 287 283 282 285 291 288 287 285 288 290 290 290 290 295 304 306 311 296 298 309
310 310 310 310 310 310 310 311 311 311 310 301 295 297 296 292 292 293 294 289 289 288 284 286 286 288 289 285 285 286 288 292 291 294 290 288 288 288 291 290 290 305 306 302 304 309 314
309 310 310 309 309 310 310 310 310 311 310 304 295 298 301 296 292 294 296 298 296 295 288 286 285 284 287 285 285 286 287 291 290 291 295 289 289 286 292 296 302 303 302 304 304 310 313
Wind_Speed
17 18 18 18 18 19 20 20 20 21 22 23 24 24 25 25 25 25 26 25 23 22 20 17 15 12 4 2 14 5 0 12 8 8 8 7 5 4 3 3 4 4 8 6 20 16 17
18 18 18 18 19 19 20 20 21 21 22 23 24 25 26 26 26 26 26 25 25 22 21 17 12 6 2 8 7 8 7 6 6 7 6 6 7 8 3 4 2 5 6 4 11 14 17
18 17 18 18 19 19 20 21 21 22 23 24 24 25 25 26 28 28 29 28 26 25 23 16 9 5 4 19 4 2 6 5 6 5 4 6 6 2 0 4 4 3 4 4 3 4 5
17 17 18 18 18 19 20 22 23 23 24 25 25 25 26 27 28 30 31 32 29 26 20 11 10 5 11 8 9 15 13 6 5 5 4 5 6 5 5 5 9 6 5 5 4 5 9
17 18 19 19 20 20 21 21 22 23 24 24 25 25 26 28 30 31 33 34 27 8 5 16 9 5 12 3 4 11 7 8 8 4 4 4 5 6 4 5 6 6 5 3 4 7 10
19 20 20 20 20 20 21 21 22 22 23 23 25 26 28 28 30 33 35 28 8 2 5 5 2 2 5 5 5 5 6 10 4 4 3 5 3 4 4 5 6 5 4 4 7 9 5
19 19 20 20 21 21 22 23 23 24 23 23 24 27 28 30 31 32 18 6 7 4 3 7 6 6 7 5 4 1 4 8 5 5 7 5 5 8 12 9 6 6 3 4 5 8 6
18 19 20 20 21 22 23 24 24 24 25 25 25 26 29 30 33 29 3 5 7 4 15 14 21 22 27 5 7 3 9 8 7 7 5 1 9 9 7 9 4 2 2 3 3 4 4
17 18 19 20 20 21 21 22 23 24 25 26 26 27 28 29 34 5 4 5 3 2 6 9 10 9 9 15 11 9 8 5 7 8 7 8 6 9 7 5 7 4 5 4 5 4 4
18 17 18 19 20 21 21 22 23 23 24 26 27 26 27 31 6 7 7 6 8 3 4 10 6 10 8 11 9 14 10 8 3 15 8 7 11 8 8 7 6 5 8 3 2 4 5
17 18 19 20 21 21 22 23 24 24 25 26 26 27 25 16 5 5 8 14 14 3 6 4 5 1 6 16 7 13 11 4 10 7 9 9 9 11 6 11 8 10 5 8 5 5 1
18 19 20 21 22 22 23 23 25 27 28 29 29 26 28 2 1 10 11 13 3 4 12 6 5 4 6 7 4 6 9 4 6 6 3 10 4 10 11 4 10 4 3 8 5 5 2
18 18 19 19 20 21 20 21 22 25 28 31 32 30 18 1 5 3 7 5 4 6 7 4 5 6 5 5 6 7 16 14 11 8 13 2 11 3 5 6 3 6 8 2 3 1 7
17 17 18 19 19 19 20 21 22 24 27 29 33 27 7 5 4 3 4 5 5 5 8 7 8 9 8 7 7 2 14 13 5 7 6 8 6 11 6 9 9 8 11 8 6 4 5
17 18 19 18 19 20 21 22 23 24 26 30 28 5 5 6 2 3 5 3 8 3 6 11 11 6 7 6 3 3 8 20 21 10 9 9 8 2 7 6 14 6 6 9 6 2 3
18 18 18 18 18 19 20 21 22 23 25 28 8 5 6 5 4 4 5 5 5 2 8 6 5 6 5 8 6 2 8 7 15 10 7 7 4 5 4 5 5 10 9 5 2 8 5
18 19 19 18 18 19 19 20 20 21 24 22 4 6 6 12 4 5 3 7 7 2 10 7 4 5 5 4 5 5 4 4 10 16 9 7 5 3 7 8 11 4 4 4 7 6 8
18 19 18 18 18 18 19 19 19 19 20 6 3 5 6 8 5 2 1 8 9 13 5 7 6 8 7 6 5 4 4 4 8 5 17 9 8 7 7 4 8 9 11 9 7 5 1
19 19 18 18 18 19 19 19 18 16 14 4 4 4 6 4 5 5 8 6 5 9 5 5 5 9 10 6 5 6 5 2 13 10 10 10 4 3 5 7 2 6 6 6 5 5 9
19 19 18 18 18 19 19 19 19 16 12 3 3 5 6 5 0 4 7 5 8 10 5 8 6 8 7 8 8 8 8 6 11 7 10 2 7 21 12 5 6 6 6 7 9 5 6
19 19 19 18 17 18 19 19 16 13 8 3 1 3 2 5 4 5 5 5 9 8 5 7 8 11 8 4 1 3 4 7 5 10 8 3 14 9 15 8 6 7 6 10 9 9 10
20 19 19 18 18 18 18 17 14 11 6 2 1 3 4 5 5 5 2 1 8 8 5 5 9 18 5 4 5 6 4 2 4 8 7 7 3 7 12 15 8 7 8 9 8 4 5
19 19 19 19 18 17 17 16 13 8 2 1 1 1 2 5 5 2 2 5 6 16 9 7 7 5 6 6 7 12 10 8 7 2 3 5 3 5 20 5 6 7 18 8 5 5 9
19 19 19 18 18 18 16 15 12 5 4 2 2 1 2 5 1 5 7 7 10 16 7 9 7 4 7 16 14 5 6 9 5 10 6 1 1 2 6 7 8 12 9 10 9 2 5
19 19 19 18 18 18 17 16 14 7 2 3 1 2 2 5 4 11 8 9 11 11 4 9 6 6 13 6 3 4 2 1 6 9 7 7 3 2 6 9 5 3 3 10 8 3 3
19 19 19 18 18 18 18 17 14 10 3 3 3 3 2 3 4 7 6 7 5 7 9 4 11 10 6 4 2 2 2 2 2 9 4 6 1 3 0 9 7 1 15 16 9 1 7
20 20 20 19 18 18 18 18 17 13 3 4 3 5 1 3 5 2 3 2 4 3 4 6 11 9 6 6 5 4 2 3 2 3 4 3 2 5 2 4 3 16 23 12 8 4 15
20 20 20 19 19 18 18 18 17 15 6 5 4 5 4 3 7 10 12 8 3 2 2 6 7 6 5 7 4 3 3 4 3 3 4 2 2 3 3 5 3 23 7 10 6 8 9
20 20 20 19 19 18 18 18 17 16 9 7 2 1 3 4 7 3 6 10 8 13 4 3 3 2 3 3 3 2 3 3 4 2 5 4 4 3 1 5 4 4 6 4 6 8 10
Wind_Direction
25 22 19 16 13 10 6 4 1 357 353 349 346 342 339 336 332 327 323 318 312 306 306 308 308 314 334 231 246 268 179 109 126 158 198 176 163 161 206 234 300 228 266 160 149 156 166
19 18 16 11 9 6 3 1 358 355 351 347 343 339 336 333 329 325 319 315 306 303 301 298 294 298 208 241 246 251 257 140 161 162 190 171 181 201 242 247 256 272 333 134 146 158 162
16 15 9 10 6 3 0 358 355 352 348 344 340 336 333 330 327 324 319 312 307 302 295 286 260 208 242 232 229 169 122 176 164 171 184 206 190 109 231 303 263 295 65 68 7 149 120
14 12 10 7 4 0 357 354 351 348 345 342 339 335 332 330 327 323 318 313 309 302 287 250 186 178 243 240 256 263 251 281 200 218 221 280 139 150 160 291 343 40 50 125 214 154 164
10 9 6 4 2 358 354 352 350 347 344 340 338 335 333 331 328 325 319 314 313 324 75 138 132 178 264 268 205 241 161 212 146 179 218 264 137 177 129 116 2 21 156 186 177 233 154
9 6 4 2 0 358 354 352 349 347 343 339 337 335 333 332 329 325 323 311 288 108 125 174 236 317 253 238 211 200 194 170 153 119 75 185 185 134 92 110 186 195 212 209 180 200 187
8 5 2 360 357 355 352 350 347 345 342 340 337 334 333 332 330 327 333 354 9 342 326 235 202 262 299 319 328 170 178 121 138 113 159 204 152 193 187 170 163 146 129 222 210 204 140
6 4 2 359 356 353 350 346 343 342 340 338 337 335 333 332 326 325 351 46 83 293 297 255 245 246 255 18 309 300 129 133 148 183 156 56 212 213 116 151 161 179 164 258 288 147 116
3 2 359 356 354 351 347 344 341 338 337 335 336 335 334 334 322 13 302 228 54 23 243 275 219 223 208 169 215 252 171 151 148 170 176 197 237 148 159 155 161 203 179 206 154 83 64
0 360 359 357 354 351 348 347 343 339 336 333 333 333 336 339 32 323 290 307 327 286 300 270 232 252 169 133 238 200 196 145 162 194 141 213 236 188 145 187 139 189 207 142 166 109 212
358 359 357 356 354 351 348 347 346 341 336 334 332 331 330 331 271 312 279 331 325 73 312 206 191 134 173 170 144 209 174 123 179 161 136 226 197 188 168 202 156 222 138 178 159 200 107
357 356 354 353 351 349 345 344 345 341 337 333 330 332 327 44 253 248 315 303 6 49 245 307 128 142 124 250 272 95 146 186 146 164 132 210 202 162 208 151 183 88 82 49 65 114 167
353 350 347 348 345 344 342 342 342 337 333 331 327 331 322 277 249 318 334 3 66 198 320 341 357 30 278 204 245 160 167 174 170 145 200 170 231 218 146 164 204 109 85 318 348 81 213
345 345 346 345 341 340 342 341 340 336 331 329 327 324 285 235 254 284 358 56 207 233 273 6 340 294 196 159 232 189 150 178 203 126 131 162 221 202 193 182 177 172 151 155 174 207 223
341 342 343 340 336 338 341 342 338 334 330 328 325 337 321 266 282 112 75 169 209 259 6 333 324 28 327 347 5 150 181 193 190 181 153 150 239 252 180 169 157 197 156 182 131 28 72
340 340 339 336 334 336 336 336 337 337 333 330 330 339 281 294 307 85 71 246 261 328 358 354 16 1 324 325 18 153 175 188 191 181 154 193 187 210 175 133 212 159 171 101 346 168 205
335 336 337 335 336 334 334 334 334 337 335 333 29 356 263 340 86 53 170 240 294 341 7 350 324 302 301 292 353 313 261 258 171 193 160 146 123 264 182 190 176 132 159 62 123 137 167
331 332 333 334 333 330 330 331 333 336 337 43 20 339 308 354 62 18 20 311 295 303 309 254 256 225 240 278 294 292 261 12 339 224 195 192 157 214 199 208 180 172 176 156 136 219 185
327 328 330 330 327 328 328 329 330 331 342 333 322 265 307 38 47 347 311 294 284 2 317 312 298 280 283 287 293 233 272 19 9 23 196 170 198 180 298 305 153 177 170 123 112 102 189
323 326 327 324 325 327 326 328 327 324 329 83 9 338 323 23 187 357 344 313 326 327 280 338 256 311 286 257 210 272 344 318 334 13 349 266 149 210 219 218 145 160 159 167 149 149 173
322 323 324 322 323 325 325 328 335 343 347 88 68 267 246 307 325 309 339 307 328 335 319 325 334 344 307 264 305 177 327 311 306 1 1 91 206 186 210 182 157 180 170 168 179 185 180
320 321 323 319 323 322 327 337 343 338 344 82 272 331 339 276 290 326 331 7 298 330 280 309 350 329 13 60 356 313 1 296 273 330 2 341 273 146 228 212 196 213 210 180 198 181 193
317 319 319 318 318 321 325 336 346 4 65 0 215 51 251 278 309 328 353 323 310 306 297 299 314 313 316 306 308 266 244 250 234 295 307 18 67 132 229 181 114 259 220 178 169 171 161
311 315 315 317 320 320 318 320 336 341 157 171 261 258 277 276 309 270 289 305 299 304 283 294 328 330 261 311 300 252 231 244 264 259 216 304 63 118 185 96 203 250 215 173 178 207 242
309 310 309 313 316 317 319 314 314 319 223 159 206 208 219 269 234 288 265 329 314 298 293 302 336 272 291 295 354 349 322 220 246 237 203 199 129 147 159 177 231 248 186 148 142 107 45
306 305 304 306 308 309 311 314 314 298 275 136 217 189 247 286 256 251 324 314 305 338 331 295 323 310 334 41 48 100 131 313 300 332 90 130 51 117 193 133 175 32 320 332 114 60 352
300 299 301 303 303 304 308 309 311 307 241 147 234 192 174 259 274 177 232 297 297 333 272 299 341 328 19 7 40 35 342 303 360 31 334 351 6 190 239 121 25 349 314 308 100 234 327
298 297 298 300 301 301 302 303 306 309 285 145 235 191 171 237 277 267 261 260 287 218 273 300 343 352 342 29 19 338 351 5 328 10 351 53 27 351 314 80 66 344 28 64 297 299 317
299 298 297 298 298 299 297 298 301 305 289 153 240 217 158 218 260 240 236 233 231 239 206 274 227 260 254 28 349 343 340 342 338 1 350 31 113 228 33 136 199 353 78 337 318 291 334